QPF
0.00 0.00 0.00 0.00 0.00 0.00 0.00 0.00 0.00 0.00 0.00 0.00 0.00 0.00 0.00 0.00 0.00 0.00 0.00 0.00 0.00 0.00 0.00 0.00 0.00 0.00 0.00 0.00 0.00 0.00 0.00 0.00 0.00 0.00 0.00 0.00 0.00 0.00 0.00 0.00 0.00 0.00 0.00 0.00 0.00 0.00 0.00 0.00 0.00
0.00 0.00 0.00 0.00 0.00 0.00 0.00 0.00 0.00 0.00 0.00 0.00 0.00 0.00 0.00 0.00 0.00 0.00 0.00 0.00 0.00 0.00 0.00 0.00 0.00 0.00 0.00 0.00 0.00 0.00 0.00 0.00 0.00 0.00 0.00 0.00 0.00 0.00 0.00 0.00 0.00 0.00 0.00 0.00 0.00 0.00 0.00 0.00 0.00
0.00 0.00 0.00 0.00 0.00 0.00 0.00 0.00 0.00 0.00 0.00 0.00 0.00 0.00 0.00 0.00 0.00 0.00 0.00 0.00 0.00 0.00 0.00 0.00 0.00 0.00 0.00 0.00 0.00 0.00 0.00 0.00 0.00 0.00 0.00 0.00 0.00 0.00 0.00 0.00 0.00 0.00 0.00 0.00 0.00 0.00 0.00 0.00 0.00
0.00 0.00 0.00 0.00 0.00 0.00 0.00 0.00 0.00 0.00 0.00 0.00 0.00 0.00 0.00 0.00 0.00 0.00 0.00 0.00 0.00 0.00 0.00 0.00 0.00 0.00 0.00 0.00 0.00 0.00 0.00 0.00 0.00 0.00 0.00 0.00 0.00 0.00 0.00 0.00 0.00 0.00 0.00 0.00 0.00 0.00 0.00 0.00 0.00
0.00 0.00 0.00 0.00 0.00 0.00 0.00 0.00 0.00 0.00 0.00 0.00 0.00 0.00 0.00 0.00 0.00 0.00 0.00 0.00 0.00 0.00 0.00 0.00 0.00 0.00 0.00 0.00 0.00 0.00 0.00 0.00 0.00 0.00 0.00 0.00 0.00 0.00 0.00 0.00 0.00 0.00 0.00 0.00 0.00 0.00 0.00 0.00 0.00
0.00 0.00 0.00 0.00 0.00 0.00 0.00 0.00 0.00 0.00 0.00 0.00 0.00 0.00 0.00 0.00 0.00 0.00 0.00 0.00 0.00 0.00 0.00 0.00 0.01 0.01 0.00 0.00 0.00 0.00 0.00 0.00 0.00 0.00 0.00 0.00 0.00 0.00 0.00 0.00 0.00 0.00 0.01 0.00 0.00 0.00 0.00 0.00 0.00
0.00 0.00 0.00 0.00 0.00 0.00 0.00 0.00 0.00 0.00 0.00 0.00 0.00 0.00 0.00 0.00 0.00 0.00 0.00 0.00 0.00 0.00 0.00 0.00 0.01 0.01 0.01 0.00 0.00 0.00 0.00 0.00 0.00 0.00 0.00 0.00 0.00 0.00 0.00 0.00 0.00 0.00 0.00 0.00 0.00 0.00 0.00 0.00 0.00
0.00 0.00 0.00 0.00 0.00 0.00 0.00 0.00 0.00 0.00 0.00 0.00 0.00 0.00 0.00 0.00 0.00 0.00 0.00 0.00 0.00 0.00 0.00 0.01 0.01 0.01 0.01 0.01 0.01 0.00 0.00 0.00 0.00 0.00 0.00 0.00 0.00 0.00 0.00 0.00 0.00 0.00 0.00 0.01 0.00 0.00 0.01 0.01 0.01
0.00 0.00 0.00 0.00 0.00 0.00 0.00 0.00 0.00 0.00 0.00 0.00 0.00 0.00 0.00 0.00 0.00 0.00 0.00 0.00 0.00 0.00 0.01 0.01 0.01 0.01 0.01 0.01 0.01 0.01 0.01 0.01 0.01 0.01 0.01 0.01 0.00 0.00 0.00 0.00 0.00 0.00 0.01 0.01 0.01 0.02 0.03 0.04 0.04
0.00 0.00 0.00 0.00 0.00 0.00 0.00 0.00 0.00 0.00 0.00 0.00 0.00 0.00 0.00 0.00 0.00 0.00 0.00 0.00 0.00 0.01 0.01 0.01 0.01 0.01 0.01 0.01 0.01 0.02 0.02 0.02 0.01 0.01 0.01 0.01 0.01 0.01 0.00 0.00 0.00 0.01 0.02 0.03 0.05 0.09 0.11 0.09 0.05
0.00 0.00 0.00 0.00 0.00 0.00 0.00 0.00 0.00 0.00 0.00 0.00 0.00 0.00 0.00 0.00 0.00 0.00 0.00 0.00 0.00 0.00 0.01 0.01 0.01 0.02 0.02 0.01 0.01 0.01 0.01 0.01 0.01 0.02 0.02 0.03 0.02 0.02 0.01 0.01 0.01 0.02 0.04 0.05 0.09 0.15 0.12 0.13 0.14
0.00 0.00 0.00 0.00 0.00 0.00 0.00 0.00 0.00 0.00 0.00 0.00 0.00 0.00 0.00 0.00 0.00 0.00 0.00 0.00 0.00 0.01 0.01 0.01 0.01 0.02 0.01 0.01 0.01 0.01 0.01 0.01 0.01 0.02 0.02 0.04 0.04 0.03 0.03 0.02 0.03 0.05 0.06 0.08 0.13 0.17 0.22 0.23 0.21
0.00 0.00 0.00 0.00 0.00 0.00 0.00 0.00 0.00 0.00 0.00 0.00 0.00 0.00 0.00 0.00 0.00 0.00 0.00 0.00 0.01 0.01 0.01 0.02 0.02 0.02 0.02 0.02 0.01 0.01 0.01 0.01 0.01 0.02 0.03 0.05 0.07 0.07 0.08 0.09 0.09 0.08 0.09 0.12 0.16 0.17 0.22 0.21 0.20
0.00 0.00 0.00 0.00 0.00 0.00 0.00 0.00 0.00 0.00 0.00 0.00 0.00 0.00 0.00 0.00 0.00 0.00 0.00 0.00 0.02 0.03 0.04 0.05 0.04 0.03 0.03 0.03 0.02 0.02 0.02 0.01 0.02 0.03 0.04 0.06 0.08 0.10 0.14 0.16 0.14 0.11 0.12 0.15 0.16 0.16 0.17 0.16 0.16
0.00 0.00 0.00 0.00 0.00 0.00 0.00 0.00 0.00 0.00 0.00 0.00 0.00 0.00 0.00 0.00 0.00 0.00 0.00 0.01 0.03 0.05 0.06 0.06 0.04 0.03 0.03 0.03 0.02 0.02 0.02 0.02 0.01 0.02 0.04 0.08 0.11 0.13 0.16 0.19 0.16 0.14 0.12 0.12 0.13 0.12 0.11 0.09 0.08
0.00 0.00 0.00 0.00 0.00 0.00 0.00 0.00 0.00 0.00 0.00 0.00 0.00 0.00 0.00 0.01 0.01 0.01 0.01 0.02 0.04 0.05 0.06 0.06 0.06 0.05 0.05 0.05 0.06 0.05 0.04 0.04 0.03 0.04 0.05 0.09 0.13 0.19 0.22 0.22 0.18 0.16 0.12 0.10 0.10 0.10 0.08 0.07 0.08
0.00 0.00 0.00 0.00 0.00 0.00 0.00 0.00 0.00 0.00 0.00 0.00 0.00 0.00 0.00 0.01 0.02 0.03 0.03 0.03 0.03 0.04 0.05 0.06 0.07 0.07 0.08 0.09 0.08 0.06 0.05 0.06 0.07 0.08 0.11 0.14 0.16 0.21 0.25 0.21 0.16 0.13 0.11 0.10 0.08 0.09 0.08 0.08 0.09
0.00 0.00 0.00 0.00 0.00 0.00 0.00 0.00 0.00 0.00 0.00 0.00 0.01 0.01 0.01 0.02 0.02 0.04 0.04 0.04 0.04 0.03 0.04 0.04 0.06 0.08 0.10 0.09 0.08 0.07 0.05 0.05 0.08 0.13 0.15 0.20 0.25 0.31 0.30 0.25 0.21 0.17 0.14 0.10 0.08 0.07 0.07 0.06 0.06
0.00 0.00 0.00 0.00 0.00 0.00 0.00 0.00 0.00 0.00 0.00 0.01 0.01 0.01 0.01 0.02 0.02 0.03 0.03 0.03 0.03 0.03 0.05 0.05 0.06 0.07 0.06 0.05 0.04 0.04 0.05 0.07 0.12 0.15 0.16 0.18 0.22 0.23 0.24 0.22 0.19 0.17 0.13 0.08 0.05 0.05 0.05 0.04 0.03
0.00 0.00 0.00 0.00 0.00 0.00 0.00 0.00 0.00 0.00 0.00 0.01 0.01 0.01 0.01 0.01 0.02 0.02 0.02 0.02 0.02 0.02 0.03 0.04 0.05 0.05 0.04 0.03 0.02 0.02 0.05 0.07 0.10 0.13 0.16 0.15 0.17 0.16 0.14 0.12 0.13 0.11 0.10 0.09 0.06 0.05 0.04 0.03 0.02
0.00 0.00 0.00 0.00 0.00 0.00 0.00 0.01 0.00 0.00 0.00 0.01 0.01 0.01 0.01 0.01 0.01 0.01 0.01 0.01 0.01 0.01 0.02 0.02 0.02 0.02 0.02 0.02 0.02 0.02 0.02 0.03 0.05 0.07 0.10 0.09 0.10 0.11 0.10 0.08 0.07 0.07 0.07 0.07 0.06 0.05 0.04 0.03 0.02
0.00 0.00 0.00 0.00 0.00 0.00 0.01 0.02 0.02 0.01 0.01 0.01 0.01 0.01 0.01 0.01 0.01 0.01 0.01 0.00 0.01 0.01 0.01 0.01 0.01 0.01 0.01 0.01 0.01 0.02 0.03 0.05 0.05 0.06 0.07 0.07 0.08 0.08 0.08 0.08 0.07 0.07 0.06 0.06 0.04 0.04 0.04 0.03 0.02
0.00 0.00 0.00 0.00 0.00 0.00 0.00 0.01 0.02 0.01 0.02 0.01 0.01 0.01 0.00 0.00 0.00 0.00 0.00 0.00 0.00 0.00 0.00 0.00 0.00 0.01 0.01 0.01 0.01 0.01 0.02 0.04 0.04 0.03 0.04 0.04 0.05 0.05 0.06 0.07 0.07 0.07 0.06 0.06 0.05 0.04 0.04 0.04 0.03
0.00 0.00 0.00 0.00 0.00 0.01 0.00 0.01 0.03 0.02 0.02 0.02 0.01 0.01 0.01 0.01 0.00 0.00 0.00 0.00 0.00 0.00 0.00 0.00 0.01 0.01 0.01 0.01 0.01 0.01 0.02 0.03 0.03 0.03 0.03 0.02 0.03 0.03 0.04 0.07 0.09 0.09 0.09 0.09 0.08 0.06 0.07 0.06 0.05
0.00 0.00 0.00 0.00 0.00 0.01 0.01 0.02 0.03 0.01 0.01 0.01 0.01 0.01 0.01 0.01 0.00 0.00 0.00 0.00 0.00 0.00 0.00 0.00 0.01 0.02 0.02 0.02 0.02 0.02 0.03 0.02 0.01 0.01 0.01 0.01 0.01 0.01 0.02 0.03 0.06 0.08 0.09 0.11 0.12 0.11 0.09 0.09 0.09
0.00 0.00 0.01 0.01 0.01 0.02 0.02 0.06 0.03 0.01 0.01 0.01 0.01 0.01 0.01 0.00 0.00 0.00 0.00 0.00 0.00 0.00 0.00 0.00 0.01 0.01 0.01 0.02 0.02 0.02 0.02 0.01 0.01 0.00 0.00 0.00 0.00 0.00 0.01 0.01 0.02 0.03 0.05 0.07 0.10 0.12 0.14 0.13 0.11
0.00 0.01 0.01 0.01 0.01 0.02 0.03 0.05 0.03 0.02 0.01 0.01 0.01 0.01 0.01 0.00 0.00 0.00 0.00 0.00 0.00 0.00 0.00 0.00 0.00 0.01 0.01 0.01 0.01 0.01 0.01 0.01 0.01 0.01 0.01 0.00 0.00 0.00 0.00 0.00 0.01 0.02 0.03 0.04 0.06 0.09 0.13 0.16 0.17
0.00 0.00 0.01 0.00 0.01 0.01 0.02 0.05 0.07 0.04 0.01 0.00 0.00 0.00 0.00 0.00 0.00 0.00 0.00 0.00 0.00 0.00 0.00 0.00 0.00 0.00 0.00 0.00 0.00 0.00 0.00 0.01 0.01 0.01 0.01 0.00 0.00 0.00 0.00 0.00 0.00 0.01 0.01 0.02 0.04 0.05 0.07 0.10 0.15
0.00 0.00 0.00 0.00 0.00 0.01 0.01 0.01 0.02 0.01 0.00 0.00 0.00 0.00 0.00 0.00 0.00 0.00 0.00 0.00 0.00 0.00 0.00 0.00 0.00 0.00 0.00 0.00 0.00 0.00 0.00 0.00 0.00 0.00 0.00 0.01 0.01 0.01 0.00 0.00 0.00 0.00 0.00 0.01 0.03 0.05 0.06 0.08 0.10
0.00 0.00 0.00 0.00 0.00 0.00 0.00 0.00 0.00 0.00 0.00 0.00 0.00 0.00 0.00 0.00 0.00 0.00 0.00 0.00 0.00 0.00 0.00 0.00 0.00 0.00 0.00 0.00 0.00 0.00 0.00 0.00 0.00 0.00 0.00 0.00 0.01 0.01 0.00 0.00 0.01 0.00 0.00 0.01 0.01 0.03 0.05 0.08 0.10
MSLP
1011.82 1012.32 1012.71 1012.90 1012.82 1012.45 1011.84 1011.07 1010.27 1009.55 1009.01 1008.70 1008.58 1008.61 1008.69 1008.75 1008.72 1008.61 1008.45 1008.32 1008.32 1008.51 1008.92 1009.52 1010.25 1010.99 1011.64 1012.13 1012.44 1012.58 1012.61 1012.63 1012.71 1012.89 1013.20 1013.60 1014.04 1014.45 1014.79 1015.04 1015.20 1015.31 1015.41 1015.53 1015.71 1015.93 1016.16 1016.37 1016.53
1011.94 1012.41 1012.74 1012.82 1012.61 1012.10 1011.36 1010.48 1009.59 1008.82 1008.26 1007.95 1007.86 1007.93 1008.07 1008.20 1008.24 1008.20 1008.12 1008.07 1008.13 1008.38 1008.84 1009.48 1010.24 1011.02 1011.72 1012.28 1012.65 1012.86 1012.95 1013.01 1013.11 1013.29 1013.56 1013.90 1014.26 1014.59 1014.86 1015.05 1015.18 1015.28 1015.39 1015.55 1015.77 1016.03 1016.30 1016.53 1016.69
1012.08 1012.49 1012.72 1012.67 1012.32 1011.68 1010.83 1009.88 1008.95 1008.18 1007.64 1007.37 1007.33 1007.45 1007.65 1007.83 1007.94 1007.97 1007.95 1007.95 1008.07 1008.35 1008.84 1009.50 1010.29 1011.10 1011.84 1012.45 1012.89 1013.16 1013.32 1013.43 1013.55 1013.73 1013.96 1014.24 1014.52 1014.77 1014.96 1015.09 1015.18 1015.27 1015.40 1015.59 1015.84 1016.14 1016.43 1016.68 1016.84
1012.24 1012.57 1012.66 1012.47 1011.98 1011.24 1010.32 1009.34 1008.42 1007.69 1007.22 1007.01 1007.03 1007.22 1007.47 1007.69 1007.85 1007.92 1007.94 1007.99 1008.14 1008.45 1008.95 1009.62 1010.41 1011.23 1011.99 1012.62 1013.10 1013.43 1013.65 1013.80 1013.94 1014.11 1014.31 1014.53 1014.74 1014.92 1015.05 1015.13 1015.20 1015.28 1015.42 1015.63 1015.92 1016.24 1016.55 1016.81 1016.96
1012.42 1012.62 1012.56 1012.23 1011.63 1010.81 1009.86 1008.91 1008.05 1007.40 1007.01 1006.88 1006.97 1007.21 1007.49 1007.74 1007.92 1008.02 1008.07 1008.15 1008.32 1008.65 1009.15 1009.81 1010.58 1011.38 1012.13 1012.76 1013.25 1013.60 1013.84 1014.02 1014.17 1014.33 1014.51 1014.69 1014.86 1014.99 1015.08 1015.13 1015.19 1015.28 1015.43 1015.67 1015.97 1016.32 1016.64 1016.89 1017.04
1012.57 1012.63 1012.43 1011.97 1011.28 1010.42 1009.49 1008.60 1007.83 1007.29 1007.00 1006.95 1007.09 1007.35 1007.64 1007.90 1008.08 1008.19 1008.27 1008.37 1008.56 1008.90 1009.39 1010.03 1010.76 1011.52 1012.22 1012.82 1013.28 1013.62 1013.85 1014.02 1014.17 1014.32 1014.48 1014.65 1014.79 1014.90 1014.98 1015.04 1015.10 1015.21 1015.39 1015.65 1015.97 1016.32 1016.64 1016.89 1017.01
1012.63 1012.55 1012.22 1011.67 1010.92 1010.07 1009.20 1008.39 1007.74 1007.31 1007.11 1007.11 1007.29 1007.55 1007.83 1008.07 1008.25 1008.36 1008.45 1008.58 1008.79 1009.14 1009.63 1010.24 1010.92 1011.61 1012.24 1012.76 1013.17 1013.45 1013.65 1013.80 1013.93 1014.06 1014.21 1014.37 1014.51 1014.63 1014.72 1014.80 1014.89 1015.03 1015.24 1015.51 1015.84 1016.19 1016.51 1016.74 1016.85
1012.55 1012.35 1011.93 1011.31 1010.56 1009.75 1008.96 1008.26 1007.73 1007.40 1007.27 1007.32 1007.49 1007.72 1007.97 1008.18 1008.33 1008.45 1008.56 1008.72 1008.97 1009.33 1009.82 1010.40 1011.02 1011.63 1012.17 1012.61 1012.93 1013.15 1013.28 1013.38 1013.48 1013.60 1013.74 1013.89 1014.04 1014.18 1014.30 1014.41 1014.54 1014.71 1014.94 1015.23 1015.56 1015.91 1016.21 1016.43 1016.53
1012.29 1012.01 1011.52 1010.89 1010.18 1009.45 1008.77 1008.20 1007.79 1007.54 1007.47 1007.52 1007.67 1007.86 1008.05 1008.22 1008.35 1008.47 1008.61 1008.81 1009.09 1009.48 1009.96 1010.51 1011.08 1011.61 1012.06 1012.40 1012.63 1012.76 1012.83 1012.87 1012.93 1013.02 1013.14 1013.29 1013.45 1013.61 1013.76 1013.90 1014.06 1014.26 1014.50 1014.79 1015.12 1015.45 1015.74 1015.94 1016.03
1011.87 1011.54 1011.05 1010.45 1009.81 1009.20 1008.66 1008.22 1007.92 1007.75 1007.71 1007.75 1007.85 1007.99 1008.12 1008.24 1008.35 1008.48 1008.65 1008.89 1009.21 1009.62 1010.10 1010.62 1011.13 1011.58 1011.94 1012.19 1012.33 1012.38 1012.38 1012.37 1012.38 1012.44 1012.54 1012.68 1012.84 1013.00 1013.17 1013.32 1013.50 1013.70 1013.94 1014.23 1014.54 1014.85 1015.12 1015.31 1015.40
1011.33 1011.00 1010.54 1010.03 1009.52 1009.05 1008.66 1008.37 1008.17 1008.07 1008.05 1008.07 1008.12 1008.19 1008.27 1008.35 1008.45 1008.58 1008.78 1009.05 1009.40 1009.82 1010.29 1010.77 1011.22 1011.60 1011.87 1012.04 1012.10 1012.08 1012.02 1011.97 1011.94 1011.96 1012.03 1012.15 1012.29 1012.44 1012.60 1012.75 1012.92 1013.10 1013.33 1013.59 1013.87 1014.15 1014.41 1014.59 1014.68
1010.78 1010.47 1010.09 1009.70 1009.34 1009.05 1008.83 1008.68 1008.60 1008.56 1008.55 1008.56 1008.57 1008.58 1008.60 1008.65 1008.74 1008.87 1009.09 1009.37 1009.73 1010.14 1010.58 1011.01 1011.39 1011.70 1011.90 1011.99 1011.99 1011.92 1011.82 1011.72 1011.66 1011.64 1011.68 1011.76 1011.87 1011.99 1012.12 1012.24 1012.38 1012.53 1012.72 1012.94 1013.19 1013.45 1013.68 1013.85 1013.95
1010.29 1010.05 1009.78 1009.53 1009.35 1009.24 1009.19 1009.19 1009.22 1009.25 1009.26 1009.26 1009.23 1009.21 1009.20 1009.22 1009.29 1009.42 1009.63 1009.91 1010.25 1010.62 1011.00 1011.36 1011.67 1011.89 1012.02 1012.06 1012.01 1011.91 1011.78 1011.65 1011.56 1011.51 1011.50 1011.54 1011.60 1011.68 1011.76 1011.83 1011.92 1012.04 1012.18 1012.35 1012.56 1012.78 1012.99 1013.17 1013.28
1009.96 1009.80 1009.65 1009.56 1009.56 1009.63 1009.75 1009.90 1010.03 1010.13 1010.17 1010.17 1010.13 1010.08 1010.05 1010.05 1010.11 1010.23 1010.42 1010.66 1010.95 1011.25 1011.55 1011.81 1012.03 1012.17 1012.23 1012.22 1012.14 1012.01 1011.86 1011.71 1011.60 1011.51 1011.47 1011.45 1011.46 1011.48 1011.51 1011.54 1011.58 1011.64 1011.73 1011.87 1012.03 1012.23 1012.42 1012.59 1012.71
1009.83 1009.74 1009.71 1009.77 1009.93 1010.17 1010.44 1010.72 1010.95 1011.11 1011.19 1011.20 1011.16 1011.11 1011.07 1011.07 1011.11 1011.21 1011.36 1011.54 1011.75 1011.96 1012.15 1012.31 1012.42 1012.48 1012.48 1012.42 1012.31 1012.17 1012.00 1011.84 1011.70 1011.58 1011.49 1011.43 1011.39 1011.36 1011.34 1011.32 1011.32 1011.34 1011.39 1011.49 1011.62 1011.78 1011.96 1012.13 1012.27
1009.85 1009.83 1009.90 1010.09 1010.39 1010.76 1011.17 1011.54 1011.85 1012.07 1012.18 1012.22 1012.20 1012.15 1012.12 1012.11 1012.15 1012.22 1012.32 1012.43 1012.54 1012.65 1012.73 1012.78 1012.79 1012.77 1012.71 1012.61 1012.48 1012.32 1012.15 1011.97 1011.80 1011.65 1011.52 1011.41 1011.33 1011.26 1011.20 1011.15 1011.12 1011.12 1011.14 1011.21 1011.31 1011.45 1011.61 1011.78 1011.93
1009.98 1010.01 1010.17 1010.45 1010.85 1011.33 1011.81 1012.26 1012.63 1012.88 1013.02 1013.08 1013.08 1013.05 1013.03 1013.03 1013.05 1013.10 1013.15 1013.19 1013.22 1013.22 1013.20 1013.15 1013.08 1012.99 1012.88 1012.75 1012.60 1012.43 1012.24 1012.04 1011.84 1011.65 1011.48 1011.34 1011.22 1011.13 1011.06 1011.00 1010.97 1010.95 1010.96 1011.01 1011.09 1011.20 1011.35 1011.51 1011.66
1010.14 1010.21 1010.41 1010.76 1011.23 1011.77 1012.31 1012.79 1013.18 1013.45 1013.61 1013.68 1013.69 1013.68 1013.67 1013.68 1013.70 1013.72 1013.74 1013.72 1013.68 1013.60 1013.50 1013.38 1013.25 1013.11 1012.97 1012.82 1012.66 1012.48 1012.27 1012.05 1011.82 1011.59 1011.39 1011.21 1011.07 1010.97 1010.90 1010.85 1010.83 1010.82 1010.83 1010.87 1010.93 1011.02 1011.13 1011.27 1011.41
1010.25 1010.35 1010.59 1010.99 1011.49 1012.06 1012.61 1013.10 1013.48 1013.74 1013.89 1013.96 1013.98 1013.98 1013.98 1014.00 1014.02 1014.03 1014.02 1013.97 1013.88 1013.76 1013.61 1013.44 1013.28 1013.13 1012.99 1012.84 1012.67 1012.48 1012.26 1012.01 1011.75 1011.48 1011.25 1011.05 1010.89 1010.79 1010.73 1010.71 1010.71 1010.73 1010.75 1010.77 1010.81 1010.86 1010.94 1011.04 1011.16
1010.29 1010.41 1010.69 1011.12 1011.64 1012.21 1012.75 1013.22 1013.57 1013.80 1013.92 1013.96 1013.97 1013.97 1013.98 1014.00 1014.02 1014.03 1014.02 1013.95 1013.84 1013.70 1013.54 1013.37 1013.21 1013.07 1012.94 1012.81 1012.65 1012.46 1012.23 1011.96 1011.67 1011.37 1011.10 1010.88 1010.72 1010.63 1010.59 1010.60 1010.64 1010.67 1010.70 1010.72 1010.73 1010.74 1010.77 1010.82 1010.89
1010.26 1010.42 1010.74 1011.20 1011.74 1012.30 1012.81 1013.24 1013.54 1013.71 1013.78 1013.78 1013.76 1013.74 1013.74 1013.76 1013.79 1013.80 1013.78 1013.72 1013.62 1013.48 1013.34 1013.19 1013.07 1012.96 1012.87 1012.76 1012.63 1012.46 1012.22 1011.94 1011.62 1011.30 1011.00 1010.76 1010.60 1010.51 1010.50 1010.54 1010.60 1010.66 1010.70 1010.71 1010.69 1010.65 1010.62 1010.60 1010.62
1010.21 1010.44 1010.81 1011.30 1011.85 1012.40 1012.88 1013.25 1013.49 1013.60 1013.60 1013.55 1013.48 1013.43 1013.40 1013.41 1013.43 1013.44 1013.43 1013.38 1013.29 1013.18 1013.07 1012.96 1012.88 1012.82 1012.77 1012.71 1012.61 1012.46 1012.23 1011.95 1011.61 1011.27 1010.96 1010.70 1010.53 1010.45 1010.46 1010.52 1010.61 1010.69 1010.74 1010.74 1010.69 1010.61 1010.51 1010.43 1010.38
1010.22 1010.51 1010.94 1011.48 1012.05 1012.59 1013.04 1013.36 1013.53 1013.57 1013.50 1013.38 1013.26 1013.15 1013.09 1013.07 1013.07 1013.08 1013.07 1013.02 1012.95 1012.87 1012.78 1012.72 1012.68 1012.67 1012.66 1012.64 1012.58 1012.45 1012.25 1011.96 1011.63 1011.27 1010.95 1010.68 1010.51 1010.43 1010.45 1010.53 1010.64 1010.74 1010.80 1010.80 1010.73 1010.61 1010.46 1010.32 1010.20
1010.32 1010.69 1011.18 1011.77 1012.36 1012.90 1013.32 1013.59 1013.69 1013.66 1013.52 1013.33 1013.14 1012.99 1012.88 1012.83 1012.80 1012.79 1012.77 1012.72 1012.66 1012.59 1012.52 1012.48 1012.47 1012.49 1012.52 1012.53 1012.50 1012.40 1012.21 1011.94 1011.61 1011.26 1010.93 1010.66 1010.48 1010.40 1010.42 1010.52 1010.64 1010.76 1010.83 1010.84 1010.77 1010.64 1010.46 1010.27 1010.11
1010.54 1010.97 1011.53 1012.15 1012.76 1013.29 1013.68 1013.90 1013.95 1013.85 1013.65 1013.40 1013.15 1012.94 1012.79 1012.70 1012.65 1012.61 1012.57 1012.51 1012.44 1012.36 1012.29 1012.25 1012.25 1012.27 1012.32 1012.35 1012.33 1012.25 1012.09 1011.84 1011.52 1011.18 1010.85 1010.58 1010.40 1010.31 1010.33 1010.43 1010.56 1010.70 1010.80 1010.83 1010.78 1010.66 1010.48 1010.28 1010.09
1010.87 1011.36 1011.95 1012.59 1013.20 1013.71 1014.07 1014.24 1014.24 1014.08 1013.82 1013.53 1013.23 1012.99 1012.80 1012.67 1012.59 1012.53 1012.46 1012.39 1012.29 1012.19 1012.10 1012.04 1012.01 1012.02 1012.05 1012.07 1012.06 1011.99 1011.84 1011.61 1011.31 1010.98 1010.66 1010.39 1010.20 1010.11 1010.12 1010.21 1010.36 1010.51 1010.64 1010.70 1010.70 1010.62 1010.48 1010.31 1010.12
1011.28 1011.79 1012.39 1013.02 1013.60 1014.07 1014.38 1014.51 1014.46 1014.26 1013.97 1013.64 1013.32 1013.05 1012.84 1012.70 1012.60 1012.52 1012.43 1012.33 1012.21 1012.07 1011.95 1011.84 1011.77 1011.74 1011.73 1011.72 1011.69 1011.61 1011.46 1011.24 1010.96 1010.65 1010.34 1010.07 1009.87 1009.77 1009.77 1009.85 1009.99 1010.16 1010.31 1010.42 1010.48 1010.46 1010.39 1010.27 1010.13
1011.72 1012.21 1012.78 1013.37 1013.90 1014.31 1014.57 1014.64 1014.54 1014.31 1014.00 1013.66 1013.34 1013.07 1012.86 1012.72 1012.62 1012.53 1012.43 1012.31 1012.16 1011.99 1011.82 1011.66 1011.53 1011.43 1011.37 1011.31 1011.24 1011.14 1010.98 1010.76 1010.49 1010.19 1009.89 1009.63 1009.42 1009.30 1009.27 1009.34 1009.46 1009.63 1009.80 1009.96 1010.07 1010.13 1010.14 1010.11 1010.05
1012.14 1012.60 1013.11 1013.62 1014.07 1014.40 1014.58 1014.59 1014.46 1014.21 1013.89 1013.56 1013.26 1013.02 1012.84 1012.71 1012.62 1012.54 1012.44 1012.31 1012.14 1011.94 1011.72 1011.50 1011.31 1011.14 1011.01 1010.89 1010.77 1010.62 1010.45 1010.22 1009.95 1009.66 1009.36 1009.09 1008.87 1008.73 1008.67 1008.70 1008.80 1008.95 1009.12 1009.30 1009.45 1009.58 1009.67 1009.74 1009.77
1012.54 1012.93 1013.36 1013.77 1014.11 1014.35 1014.44 1014.40 1014.23 1013.98 1013.67 1013.37 1013.11 1012.90 1012.76 1012.67 1012.60 1012.54 1012.45 1012.31 1012.13 1011.90 1011.65 1011.38 1011.12 1010.89 1010.68 1010.49 1010.31 1010.12 1009.91 1009.66 1009.39 1009.09 1008.79 1008.51 1008.27 1008.10 1008.00 1007.98 1008.04 1008.15 1008.30 1008.47 1008.65 1008.82 1008.99 1009.14 1009.27
Thickness
5832 5834 5835 5828 5820 5825 5832 5842 5850 5851 5856 5865 5865 5860 5854 5849 5841 5834 5854 5865 5860 5854 5844 5830 5825 5820 5817 5814 5812 5809 5807 5804 5802 5799 5795 5792 5789 5786 5783 5780 5778 5775 5773 5771 5769 5767 5765 5763 5761
5837 5837 5831 5826 5824 5830 5831 5844 5847 5851 5859 5866 5865 5860 5854 5853 5856 5852 5855 5858 5856 5851 5841 5832 5823 5819 5815 5812 5810 5807 5804 5802 5799 5797 5794 5791 5788 5785 5782 5779 5777 5775 5773 5770 5768 5766 5765 5763 5760
5838 5837 5829 5829 5830 5828 5831 5847 5851 5859 5866 5863 5858 5860 5855 5851 5853 5852 5856 5856 5853 5847 5839 5829 5820 5816 5813 5810 5807 5804 5802 5799 5796 5794 5791 5789 5786 5783 5781 5778 5776 5773 5772 5769 5767 5765 5763 5761 5759
5834 5829 5830 5827 5831 5839 5843 5852 5858 5859 5862 5864 5860 5852 5854 5854 5856 5856 5855 5854 5848 5841 5836 5826 5818 5813 5810 5806 5803 5801 5798 5796 5793 5791 5788 5786 5783 5781 5779 5776 5774 5771 5770 5768 5765 5763 5761 5759 5758
5833 5830 5827 5831 5836 5844 5853 5859 5861 5856 5855 5860 5859 5849 5846 5852 5858 5856 5852 5849 5843 5839 5834 5823 5815 5810 5806 5803 5800 5798 5795 5792 5790 5787 5785 5782 5780 5778 5776 5774 5771 5769 5767 5765 5763 5761 5759 5758 5756
5827 5829 5823 5827 5833 5843 5854 5861 5862 5857 5856 5858 5856 5848 5843 5851 5851 5850 5849 5846 5843 5838 5832 5821 5811 5807 5803 5800 5797 5794 5792 5789 5786 5784 5782 5779 5777 5775 5773 5771 5769 5767 5765 5763 5761 5759 5757 5756 5754
5823 5824 5822 5825 5827 5835 5847 5860 5858 5854 5852 5857 5861 5847 5843 5847 5850 5849 5845 5843 5841 5837 5830 5820 5812 5805 5800 5796 5793 5790 5787 5785 5782 5780 5777 5775 5773 5771 5769 5767 5765 5764 5762 5760 5758 5757 5755 5754 5752
5829 5823 5820 5826 5824 5830 5848 5856 5859 5856 5853 5863 5862 5847 5841 5844 5848 5846 5840 5837 5835 5832 5827 5819 5813 5806 5800 5796 5790 5787 5784 5781 5778 5775 5773 5770 5768 5766 5765 5763 5762 5760 5759 5757 5756 5754 5753 5751 5750
5824 5811 5814 5823 5824 5831 5846 5846 5855 5864 5857 5855 5858 5854 5854 5850 5844 5837 5831 5828 5826 5824 5822 5817 5812 5805 5801 5798 5792 5785 5781 5778 5775 5772 5769 5767 5767 5768 5765 5762 5760 5757 5755 5754 5752 5751 5751 5749 5749
5816 5808 5818 5829 5832 5833 5837 5839 5846 5850 5846 5843 5845 5845 5846 5842 5836 5830 5825 5820 5817 5815 5815 5813 5809 5804 5800 5796 5790 5786 5782 5779 5774 5773 5770 5766 5766 5765 5764 5761 5756 5753 5751 5750 5749 5749 5748 5747 5750
5816 5812 5822 5828 5833 5833 5832 5837 5844 5840 5834 5834 5835 5837 5837 5835 5830 5827 5824 5821 5816 5812 5810 5810 5805 5799 5795 5791 5788 5784 5780 5776 5772 5769 5765 5762 5761 5760 5758 5757 5754 5750 5748 5749 5750 5748 5748 5750 5750
5810 5815 5818 5822 5829 5827 5827 5831 5831 5828 5825 5835 5838 5838 5834 5830 5828 5826 5821 5817 5813 5809 5806 5805 5800 5794 5788 5785 5783 5778 5775 5772 5769 5765 5760 5759 5756 5755 5754 5752 5752 5749 5748 5747 5748 5748 5748 5747 5748
5803 5809 5816 5821 5823 5824 5822 5821 5819 5818 5825 5830 5830 5828 5825 5825 5823 5821 5818 5812 5808 5802 5800 5797 5792 5787 5781 5776 5774 5772 5769 5765 5762 5758 5756 5753 5751 5750 5749 5746 5744 5744 5744 5744 5743 5744 5745 5745 5746
5806 5807 5811 5815 5817 5817 5811 5810 5809 5805 5815 5815 5814 5813 5814 5814 5813 5809 5805 5801 5798 5795 5792 5789 5784 5779 5774 5769 5766 5764 5762 5758 5756 5753 5751 5747 5745 5744 5742 5739 5738 5738 5738 5739 5739 5740 5740 5742 5744
5802 5796 5802 5807 5810 5811 5809 5793 5788 5794 5801 5797 5795 5793 5793 5794 5795 5793 5793 5791 5790 5787 5784 5779 5775 5772 5767 5763 5760 5759 5756 5753 5751 5748 5744 5740 5738 5737 5735 5733 5732 5732 5731 5731 5732 5734 5736 5738 5741
5796 5792 5789 5796 5803 5804 5799 5779 5779 5789 5788 5782 5782 5780 5778 5777 5779 5781 5781 5780 5780 5777 5773 5769 5767 5762 5758 5755 5752 5751 5749 5747 5745 5742 5739 5735 5732 5730 5729 5728 5726 5724 5724 5726 5728 5729 5732 5734 5736
5788 5787 5786 5785 5795 5797 5794 5771 5769 5779 5777 5770 5770 5769 5767 5765 5765 5767 5769 5768 5767 5765 5762 5758 5756 5752 5748 5746 5744 5742 5740 5737 5737 5735 5733 5730 5727 5724 5723 5722 5720 5719 5719 5720 5723 5727 5727 5728 5730
5781 5785 5781 5779 5783 5786 5777 5763 5763 5767 5767 5762 5760 5758 5756 5754 5754 5757 5758 5758 5756 5755 5752 5748 5745 5741 5738 5736 5734 5732 5731 5730 5730 5728 5725 5723 5720 5718 5717 5717 5715 5713 5712 5713 5716 5718 5720 5722 5724
5783 5781 5776 5774 5778 5774 5763 5756 5755 5758 5757 5753 5752 5750 5748 5747 5749 5750 5750 5749 5747 5744 5741 5737 5734 5731 5727 5725 5723 5722 5721 5721 5721 5720 5718 5716 5714 5713 5710 5711 5709 5707 5705 5707 5712 5714 5715 5716 5720
5780 5776 5773 5769 5771 5767 5755 5748 5750 5750 5746 5745 5744 5743 5742 5742 5742 5742 5741 5740 5738 5734 5731 5727 5723 5720 5717 5715 5712 5711 5711 5711 5711 5710 5709 5708 5706 5706 5706 5703 5702 5701 5701 5703 5705 5706 5709 5712 5715
5777 5777 5775 5767 5763 5763 5754 5742 5742 5743 5743 5741 5741 5740 5738 5735 5734 5733 5732 5730 5728 5724 5721 5719 5713 5710 5707 5704 5705 5703 5702 5701 5701 5700 5700 5699 5698 5698 5696 5696 5696 5696 5697 5698 5699 5700 5700 5703 5709
5770 5781 5776 5767 5758 5758 5755 5743 5737 5738 5736 5735 5734 5734 5732 5730 5729 5726 5724 5721 5719 5716 5714 5709 5704 5701 5697 5695 5694 5692 5690 5690 5689 5689 5689 5689 5689 5689 5689 5689 5689 5690 5691 5692 5693 5696 5697 5697 5700
5774 5779 5775 5770 5764 5758 5757 5749 5736 5738 5730 5729 5729 5728 5727 5725 5723 5720 5718 5715 5712 5710 5706 5702 5697 5692 5688 5686 5683 5681 5681 5681 5681 5680 5678 5677 5679 5679 5679 5679 5680 5681 5683 5685 5686 5688 5689 5693 5694
5777 5773 5770 5770 5766 5743 5749 5743 5729 5733 5728 5727 5726 5724 5722 5721 5718 5715 5713 5710 5706 5704 5700 5696 5690 5684 5680 5677 5674 5670 5668 5667 5666 5665 5666 5667 5668 5668 5669 5669 5669 5670 5672 5675 5677 5679 5681 5684 5688
5774 5762 5748 5741 5740 5738 5747 5738 5720 5727 5728 5726 5722 5720 5719 5717 5714 5710 5707 5703 5700 5696 5693 5688 5682 5677 5673 5669 5665 5662 5658 5655 5653 5653 5655 5654 5656 5657 5656 5657 5657 5658 5660 5662 5665 5668 5672 5675 5679
5764 5761 5742 5727 5731 5740 5740 5726 5720 5725 5725 5723 5721 5718 5715 5712 5709 5705 5700 5697 5693 5689 5684 5679 5672 5667 5664 5660 5656 5652 5648 5647 5648 5646 5643 5643 5643 5644 5644 5643 5643 5645 5647 5649 5652 5656 5659 5664 5668
5761 5758 5760 5748 5743 5733 5734 5724 5718 5721 5718 5716 5714 5711 5709 5706 5703 5699 5695 5690 5685 5680 5674 5668 5662 5657 5653 5649 5645 5642 5639 5636 5634 5632 5630 5631 5631 5630 5630 5629 5629 5631 5632 5634 5638 5642 5645 5650 5655
5763 5758 5752 5743 5721 5719 5728 5720 5711 5711 5710 5710 5707 5704 5703 5700 5696 5691 5686 5680 5675 5668 5663 5658 5652 5646 5642 5638 5635 5634 5631 5627 5624 5621 5620 5618 5616 5615 5615 5616 5616 5617 5618 5621 5623 5628 5633 5635 5641
5751 5749 5744 5741 5730 5714 5711 5716 5719 5711 5707 5705 5703 5699 5695 5690 5686 5680 5675 5670 5663 5658 5652 5647 5642 5637 5632 5628 5625 5621 5618 5615 5613 5611 5609 5606 5604 5601 5601 5602 5602 5603 5605 5606 5609 5613 5618 5622 5627
5749 5741 5739 5724 5716 5717 5712 5714 5720 5714 5710 5704 5697 5694 5689 5682 5677 5671 5666 5659 5652 5646 5641 5636 5631 5627 5623 5619 5615 5611 5607 5603 5600 5598 5596 5594 5591 5589 5588 5588 5588 5590 5592 5593 5595 5598 5603 5608 5613